Printer-friendly version

IAU Minor Planet Center

Minor Planet Center

MPEC 2006-J14 : 2006 JF

The following Minor Planet Electronic Circular may be linked-to from your own Web pages, but must not otherwise be redistributed electronically.


Read MPEC 2006-J13 Read MPEC 2006-J15


M.P.E.C. 2006-J14                                Issued 2006 May 2, 17:30 UT

     The Minor Planet Electronic Circulars contain information on unusual
         minor planets and routine data on comets.  They are published
   on behalf of Commission 20 of the International Astronomical Union by the
          Minor Planet Center, Smithsonian Astrophysical Observatory,
                          Cambridge, MA 02138, U.S.A.

                  Supported in part by the Brinson Foundation
                  Supported in part by the TABASGO Foundation
             Prepared using the Tamkin Foundation Computer Network

                              MPC@CFA.HARVARD.EDU
          URL http://cfa-www.harvard.edu/iau/mpc.html  ISSN 1523-6714

                                    2006 JF

Observations:
     K06J00F* C2006 05 01.35525 13 45 51.90 -08 57 36.2          19.3   EJ014704
     K06J00F  C2006 05 01.36560 13 45 49.83 -08 56 52.2          19.6   EJ014704
     K06J00F  C2006 05 01.37586 13 45 47.76 -08 56 07.5          19.8   EJ014704
     K06J00F  C2006 05 02.19324 13 43 14.78 -07 59 00.0          18.8 R EJ014734
     K06J00F  C2006 05 02.19480 13 43 14.49 -07 58 53.4          18.9 R EJ014734
     K06J00F  C2006 05 02.19714 13 43 14.07 -07 58 44.2          18.7 R EJ014734
     K06J00F  C2006 05 02.20025 13 43 13.48 -07 58 31.5          18.6 R EJ014734
     K06J00F 5C2006 05 02.22986 13 43 08.30 -07 56 28.8          19.0 R EJ014673
     K06J00F 5C2006 05 02.23484 13 43 07.37 -07 56 08.4                 EJ014673
     K06J00F 5C2006 05 02.24757 13 43 04.94 -07 55 15.7                 EJ014673
     K06J00F 5C2006 05 02.25162 13 43 04.08 -07 54 59.7                 EJ014673
     K06J00F  C2006 05 02.26602 13 43 01.32 -07 53 58.9          19.3 R EJ014854
     K06J00F  C2006 05 02.27083 13 43 00.35 -07 53 39.6          19.2 R EJ014854
     K06J00F  C2006 05 02.27564 13 42 59.47 -07 53 20.5          19.2 R EJ014854
     K06J00F  C2006 05 02.60302 13 41 59.82 -07 30 48.6          18.8 V EJ014E12
     K06J00F  C2006 05 02.60355 13 41 59.67 -07 30 46.2          19.1 V EJ014E12
     K06J00F  C2006 05 02.60409 13 41 59.60 -07 30 44.6          19.0 V EJ014E12
     K06J00F  C2006 05 02.60463 13 41 59.46 -07 30 41.9          18.8 V EJ014E12

Observer details:
673 Table Mountain Observatory, Wrightwood.  Observer J. Young.  0.6-m f/16
    Cassegrain + CCD.
704 Lincoln Laboratory ETS, New Mexico.  Observers M. Bezpalko, L. Manguso,
    D. Torres, R. Kracke, M. Blythe, H. Love, G. Spitz.  Measurers J. Stuart,
    J. Kommers.  1.0-m f/2.15 reflector + CCD.
734 Farpoint Observatory.  Observer D. Tibbets.  Measurer G. Hug.  0.7-m
    reflector + CCD.
854 Sabino Canyon Observatory, Tucson.  Observer J. E. McGaha.  0.36-m f/10.0
    Schmidt-Cassegrain + CCD.
E12 Siding Spring Survey.  Observer R. H. McNaught.  Measurers E. C. Beshore,
    E. J. Christensen, G. J. Garradd, A. R. Gibbs, A. D. Grauer, R. E. Hill,
    R. A. Kowalski, S. M. Larson, R. H. McNaught.  0.5-m Uppsala Schmidt + CCD.

Orbital elements:
2006 JF                                                  Earth MOID = 0.2204 AU
Epoch 2006 Mar. 6.0 TT = JDT 2453800.5                  MPC
M  36.31146              (2000.0)            P               Q
n   0.88360335     Peri.  210.93868     +0.46168056     -0.79638625
a   1.0755513      Node   216.34818     +0.88691653     +0.42196582
e   0.6553413      Incl.   41.23431     +0.01516968     -0.43325949
P   1.12           H   19.6           G   0.15           U   8
Residuals in seconds of arc
060501 704  0.2+  0.0     060502 734  0.1-  0.1-    060502 854  0.0   0.4+
060501 704  0.1+  0.4-    060502 673  0.3+  0.4-    060502 854  0.5+  0.2-
060501 704  0.3-  0.3+    060502 673  0.6+  0.4-    060502 E12  0.4+  0.1-
060502 734  0.7-  0.2+    060502 673  0.5+  0.1+    060502 E12  0.4-  0.2+
060502 734  0.6-  0.4+    060502 673  0.9-  0.5-    060502 E12  0.1+  0.4-
060502 734  0.2-  0.1-    060502 854  0.8+  0.8+    060502 E12  0.5-  0.1+

Ephemeris:
2006 JF                  a,e,i = 1.08, 0.66, 41                  q = 0.3707
Date    TT    R. A. (2000) Decl.     Delta      r     Elong.  Phase     V
2006 04 25    14 10.62   -17 38.9    0.364    1.369   175.4     3.4    18.4
2006 05 05    13 35.35   -04 59.4    0.455    1.443   159.1    14.4    19.5
2006 05 15    13 16.52   +02 36.5    0.579    1.508   141.6    24.6    20.4
2006 05 25    13 07.88   +06 48.9    0.721    1.565   128.2    30.6    21.2
2006 06 04    13 05.75   +08 59.8    0.874    1.615   117.4    33.9    21.8

Gareth V. Williams           (C) Copyright 2006 MPC           M.P.E.C. 2006-J14

Read MPEC 2006-J13 Read MPEC 2006-J15


Our Web policy. Index to the CBAT/MPC/ICQ pages.


Valid HTML 4.01!